Flag for Malaysia Weather past 2 weeks in Kota Kinabalu, Malaysia

Now
81 °F

Partly cloudy.


Feels Like: 87 °F
Forecast: 78 / 90 °F
Wind: 2 mph from Southeast

Location: Kota Kinabalu Airport

Current Time: Apr 1, 2015 at 10:33:53 PM

Latest Report: Apr 1, 2015 at 10:00 PM


Visibility: N/A

Pressure: 29.80 "Hg

Humidity: 89%

Dew point: 77 °F

Location of Kota KinabaluLocation

Historic Weather in Kota Kinabalu — Graph

°F

Kota Kinabalu temperature yesterday

Maximum temperature yesterday: 90 °F (at 2:00 PM)
Minimum temperature yesterday: 77 °F (at 5:00 AM)
Average temperature yesterday: 83 °F

Past Weeks' High & Low Weather Summary

 TemperatureHumidityPressure
High93 °F (Mar 29, 2:00 PM)94% (Mar 18, 3:00 AM)29.95 "Hg (Mar 18, 3:00 AM)
Low73 °F (Mar 18, 3:00 AM)49% (Mar 22, 11:00 AM)29.74 "Hg (Mar 28, 5:00 PM)
Average83 °F79%29.84 "Hg
* Reported Mar 17 9:00 PM — Apr 1 9:30 PM, Kota Kinabalu, Weather by CustomWeather, © 2015

Note: Actual official high and low records may vary slightly from our data, if they occured in-between our weather recording intervals... More about our weather records

Advertising

Kota Kinabalu weather history for previous 24 hours

 ConditionsComfort  
Time TempWeatherWind HumidityBarometerVisibility
9:30 PM
Wed, Apr 1
82 °FPartly cloudy.5 mph84%29.77 "HgN/A
9:00 PM82 °FPartly cloudy.No wind84%29.77 "HgN/A
8:30 PM82 °FPartly cloudy.3 mph84%29.77 "HgN/A
8:00 PM82 °FPartly cloudy.5 mph84%29.77 "HgN/A
7:30 PM84 °FPartly cloudy.1 mph84%29.74 "Hg6 mi
7:00 PM84 °FPartly cloudy.2 mph79%29.74 "Hg6 mi
6:30 PM84 °FPartly cloudy.5 mph79%29.74 "Hg6 mi
6:00 PM86 °FBroken clouds.6 mph79%29.74 "Hg6 mi
5:30 PM86 °FBroken clouds.5 mph79%29.74 "Hg6 mi
5:00 PM86 °FBroken clouds.6 mph79%29.74 "Hg6 mi
4:30 PM86 °FBroken clouds.5 mph79%29.74 "Hg6 mi
4:00 PM88 °FBroken clouds.6 mph75%29.74 "Hg6 mi
3:30 PM86 °FBroken clouds.8 mph79%29.74 "Hg4 mi
3:00 PM86 °FPartly sunny.9 mph79%29.74 "Hg3 mi
2:30 PM88 °FPartly sunny.8 mph75%29.74 "Hg3 mi
2:00 PM88 °FPartly sunny.9 mph75%29.74 "Hg2 mi
1:30 PM90 °FPartly sunny.7 mph75%29.77 "Hg2 mi
1:00 PM91 °FPartly sunny.5 mph71%29.77 "Hg4 mi
12:30 PM90 °FPartly sunny.7 mph75%29.80 "Hg4 mi
12:00 PM90 °FPartly sunny.6 mph75%29.80 "Hg4 mi
11:30 AM90 °FPartly sunny.3 mph75%29.83 "Hg4 mi
11:00 AM88 °FPartly sunny.6 mph79%29.83 "Hg4 mi
10:30 AM88 °FPartly sunny.3 mph75%29.83 "Hg5 mi
10:00 AM88 °FPartly sunny.3 mph75%29.86 "Hg6 mi
9:30 AM86 °FPartly sunny.3 mph79%29.86 "Hg5 mi
9:00 AM84 °FPartly sunny.2 mph79%29.86 "Hg5 mi
8:30 AM84 °FPartly sunny.1 mph79%29.83 "Hg5 mi
8:00 AM82 °FPartly sunny.2 mph79%29.83 "Hg5 mi
7:30 AM81 °FPartly sunny.2 mph84%29.83 "Hg5 mi
7:00 AM79 °FPartly sunny.5 mph89%29.83 "Hg5 mi
6:30 AM77 °FPartly sunny.6 mph94%29.83 "HgN/A
6:00 AM77 °FPassing clouds.6 mph89%29.80 "HgN/A
5:30 AM77 °FPassing clouds.3 mph94%29.80 "HgN/A
5:00 AM77 °FPassing clouds.3 mph94%29.80 "HgN/A
4:30 AM79 °FPassing clouds.3 mph89%29.80 "HgN/A
4:00 AM79 °FPassing clouds.3 mph89%29.80 "HgN/A
3:30 AM79 °FPassing clouds.1 mph89%29.80 "HgN/A
3:00 AM79 °FPassing clouds.1 mph89%29.80 "HgN/A
2:30 AM79 °FPassing clouds.1 mph89%29.80 "HgN/A
2:00 AM79 °FPartly cloudy.2 mph89%29.80 "HgN/A
1:30 AM79 °FPartly cloudy.2 mph89%29.80 "HgN/A
1:00 AM81 °FPartly cloudy.No wind89%29.80 "HgN/A
12:30 AM81 °FPartly cloudy.2 mph89%29.83 "HgN/A
12:00 AM81 °FPartly cloudy.2 mph89%29.83 "HgN/A
11:30 PM
Tue, Mar 31
82 °FPartly cloudy.1 mph89%29.83 "HgN/A
11:00 PM82 °FPartly cloudy.3 mph89%29.83 "HgN/A
10:30 PM82 °FPartly cloudy.7 mph89%29.86 "HgN/A
10:00 PM82 °FPartly cloudy.6 mph89%29.83 "HgN/A
Weather by CustomWeather, © 2015

See weather overviewHow to use our weather pages